| time (UTC) | temp F | wind direction | speed knots | gust knots | rain 1hr in | rain 24hr in | rain mn in | humidity % | barometer mb |
| 20260504000309 | 52 | 286 | 2.6 | 7.8 | 0.00 | 0.00 | 0.00 | ||
| 20260503235808 | 52 | 298 | 5.2 | 10.4 | 0.00 | 0.00 | 0.00 | ||
| 20260503235308 | 52 | 281 | 5.2 | 7.8 | 0.00 | 0.00 | 0.00 | ||
| 20260503234808 | 53 | 296 | 3.5 | 7.0 | 0.00 | 0.00 | 0.00 | ||
| 20260503234309 | 53 | 282 | 3.5 | 7.0 | 0.00 | 0.00 | 0.00 | ||
| 20260503233809 | 54 | 282 | 4.3 | 7.8 | 0.00 | 0.00 | 0.00 | ||
| 20260503232809 | 55 | 299 | 3.5 | 10.4 | 0.00 | 0.00 | 0.00 | ||
| 20260503232308 | 55 | 304 | 7.0 | 13.0 | 0.00 | 0.00 | 0.00 | ||
| 20260503231808 | 55 | 306 | 5.2 | 13.9 | 0.00 | 0.00 | 0.00 | ||
| 20260503231308 | 55 | 302 | 7.8 | 12.2 | 0.00 | 0.00 | 0.00 | ||
| 20260503230808 | 55 | 307 | 6.1 | 10.4 | 0.00 | 0.00 | 0.00 | ||
| 20260503230309 | 55 | 291 | 6.1 | 12.2 | 0.00 | 0.00 | 0.00 | ||
| 20260503225808 | 55 | 293 | 5.2 | 8.7 | 0.00 | 0.00 | 0.00 | ||
| 20260503225310 | 56 | 279 | 4.3 | 12.2 | 0.00 | 0.00 | 0.00 | ||
| 20260503224808 | 56 | 298 | 7.8 | 12.2 | 0.00 | 0.00 | 0.00 | ||
| 20260503224308 | 56 | 285 | 7.0 | 11.3 | 0.00 | 0.00 | 0.00 | ||
| 20260503223809 | 57 | 296 | 6.1 | 13.0 | 0.00 | 0.00 | 0.00 | ||
| 20260503223309 | 58 | 302 | 6.1 | 12.2 | 0.00 | 0.00 | 0.00 | ||
| 20260503222809 | 58 | 295 | 7.8 | 13.0 | 0.00 | 0.00 | 0.00 | ||
| 20260503222309 | 56 | 299 | 6.1 | 11.3 | 0.00 | 0.00 | 0.00 | ||
| 20260503221808 | 56 | 296 | 6.1 | 13.9 | 0.00 | 0.00 | 0.00 | ||
| 20260503221309 | 56 | 301 | 5.2 | 12.2 | 0.00 | 0.00 | 0.00 | ||
| 20260503220809 | 56 | 292 | 6.1 | 10.4 | 0.00 | 0.00 | 0.00 | ||
| 20260503215808 | 59 | 301 | 10.4 | 20.0 | 0.00 | 0.00 | 0.00 | ||
| 20260503215308 | 60 | 302 | 7.8 | 15.6 | 0.00 | 0.00 | 0.00 | ||
| 20260503214809 | 60 | 302 | 6.1 | 12.2 | 0.00 | 0.00 | 0.00 | ||
| 20260503213808 | 59 | 282 | 8.7 | 17.4 | 0.00 | 0.00 | 0.00 | ||
| 20260503212308 | 58 | 303 | 3.5 | 11.3 | 0.00 | 0.00 | 0.00 | ||
| 20260503211809 | 58 | 302 | 7.8 | 15.6 | 0.00 | 0.00 | 0.00 | ||
| 20260503210808 | 57 | 295 | 4.3 | 11.3 | 0.00 | 0.00 | 0.00 | ||
| 20260503210308 | 57 | 291 | 6.1 | 12.2 | 0.00 | 0.00 | 0.00 | ||
| 20260503205808 | 57 | 291 | 6.1 | 13.0 | 0.00 | 0.00 | 0.00 | ||
| 20260503205309 | 58 | 295 | 6.1 | 12.2 | 0.00 | 0.00 | 0.00 | ||
| 20260503204808 | 58 | 302 | 6.1 | 13.9 | 0.00 | 0.00 | 0.00 | ||
| 20260503204308 | 59 | 289 | 6.1 | 13.0 | 0.00 | 0.00 | 0.00 | ||
| 20260503203308 | 59 | 307 | 6.1 | 12.2 | 0.00 | 0.00 | 0.00 | ||
| 20260503202808 | 58 | 307 | 7.0 | 12.2 | 0.00 | 0.00 | 0.00 | ||
| 20260503201809 | 60 | 305 | 7.8 | 11.3 | 0.00 | 0.00 | 0.00 | ||
| 20260503200809 | 60 | 299 | 10.4 | 13.9 | 0.00 | 0.00 | 0.00 | ||
| 20260503200309 | 61 | 306 | 7.8 | 19.1 | 0.00 | 0.00 | 0.00 | ||
| 20260503195809 | 59 | 311 | 8.7 | 18.2 | 0.00 | 0.01 | 0.00 | ||
| 20260503195308 | 59 | 309 | 8.7 | 13.0 | 0.00 | 0.01 | 0.00 | ||
| 20260503194808 | 61 | 311 | 8.7 | 13.9 | 0.00 | 0.01 | 0.00 | ||
| 20260503194308 | 60 | 307 | 7.8 | 12.2 | 0.00 | 0.01 | 0.00 | ||
| 20260503193808 | 62 | 299 | 7.0 | 14.8 | 0.00 | 0.01 | 0.00 | ||
| 20260503192808 | 59 | 294 | 12.2 | 20.9 | 0.00 | 0.01 | 0.00 | ||
| 20260503192308 | 58 | 301 | 10.4 | 18.2 | 0.00 | 0.01 | 0.00 | ||
| 20260503191808 | 59 | 318 | 11.3 | 18.2 | 0.00 | 0.01 | 0.00 | ||
| 20260503191308 | 59 | 290 | 7.8 | 13.9 | 0.00 | 0.01 | 0.00 | ||
| 20260503190808 | 59 | 271 | 7.0 | 12.2 | 0.00 | 0.01 | 0.00 | ||
| 20260503190308 | 58 | 296 | 5.2 | 8.7 | 0.00 | 0.01 | 0.00 | ||
| 20260503185808 | 58 | 288 | 8.7 | 13.0 | 0.00 | 0.01 | 0.00 | ||
| 20260503183309 | 57 | 307 | 7.0 | 12.2 | 0.00 | 0.01 | 0.00 | ||
| 20260503182308 | 56 | 320 | 6.1 | 13.9 | 0.00 | 0.01 | 0.00 | ||
| 20260503181808 | 55 | 314 | 7.8 | 13.0 | 0.00 | 0.01 | 0.00 | ||
| 20260503181308 | 56 | 306 | 11.3 | 15.6 | 0.00 | 0.01 | 0.00 | ||
| 20260503180308 | 59 | 291 | 7.8 | 14.8 | 0.00 | 0.01 | 0.00 | ||
| 20260503175808 | 57 | 306 | 7.8 | 13.9 | 0.00 | 0.01 | 0.00 | ||
| 20260503174808 | 57 | 324 | 8.7 | 17.4 | 0.00 | 0.01 | 0.00 | ||
| 20260503174308 | 55 | 313 | 7.0 | 18.2 | 0.00 | 0.01 | 0.00 | ||
| 20260503173308 | 57 | 318 | 7.8 | 19.1 | 0.00 | 0.01 | 0.00 | ||
| 20260503172808 | 56 | 310 | 7.8 | 13.9 | 0.00 | 0.01 | 0.00 | ||
| 20260503172308 | 56 | 314 | 6.1 | 13.9 | 0.00 | 0.01 | 0.00 | ||
| 20260503171808 | 55 | 300 | 12.2 | 18.2 | 0.00 | 0.01 | 0.00 | ||
| 20260503171308 | 57 | 275 | 8.7 | 14.8 | 0.00 | 0.01 | 0.00 | ||
| 20260503170808 | 55 | 314 | 8.7 | 14.8 | 0.00 | 0.01 | 0.00 | ||
| 20260503150807 | 50 | 308 | 7.8 | 15.6 | 0.00 | 0.01 | 0.00 | ||
| 20260503140308 | 49 | 301 | 9.6 | 13.9 | 0.00 | 0.01 | 0.00 | ||
| 20260503131309 | 48 | 293 | 6.1 | 13.9 | 0.00 | 0.01 | 0.00 | ||
| 20260503130809 | 48 | 278 | 2.6 | 7.8 | 0.00 | 0.01 | 0.00 | ||
| 20260503130309 | 48 | 244 | 2.6 | 7.0 | 0.00 | 0.01 | 0.00 | ||
| 20260503110309 | 37 | 307 | 1.7 | 5.2 | 0.00 | 0.01 | 0.00 | ||
| 20260503090308 | 37 | 317 | 0.9 | 6.1 | 0.00 | 0.01 | 0.00 | ||
| 20260503080809 | 34 | 356 | 0.0 | 0.0 | 0.00 | 0.01 | 0.00 | ||
| 20260503080308 | 34 | 356 | 0.0 | 0.0 | 0.00 | 0.01 | 0.00 | ||
| 20260503072808 | 35 | 356 | 0.0 | 0.0 | 0.00 | 0.01 | 0.00 | ||
| 20260503072308 | 35 | 356 | 0.0 | 0.0 | 0.00 | 0.01 | 0.00 | ||
| 20260503071808 | 36 | 356 | 0.0 | 0.0 | 0.00 | 0.01 | 0.00 | ||
| 20260503071309 | 36 | 356 | 0.0 | 2.6 | 0.00 | 0.01 | 0.00 | ||
| 20260503070308 | 36 | 319 | 0.0 | 0.0 | 0.00 | 0.01 | 0.00 | ||
| 20260503060308 | 35 | 301 | 0.0 | 0.9 | 0.00 | 0.01 | 0.00 | ||
| 20260503054308 | 38 | 318 | 0.0 | 6.1 | 0.00 | 0.01 | 0.00 | ||
| 20260503053808 | 38 | 316 | 1.7 | 6.1 | 0.00 | 0.01 | 0.00 | ||
| 20260503053309 | 39 | 312 | 0.9 | 4.3 | 0.00 | 0.01 | 0.00 | ||
| 20260503052809 | 39 | 311 | 0.0 | 1.7 | 0.00 | 0.01 | 0.00 | ||
| 20260503051308 | 40 | 294 | 1.7 | 6.1 | 0.00 | 0.01 | 0.00 | ||
| 20260503050309 | 41 | 343 | 0.9 | 5.2 | 0.00 | 0.01 | 0.00 | ||
| 20260503045808 | 41 | 308 | 2.6 | 6.1 | 0.00 | 0.01 | 0.00 | ||
| 20260503045308 | 40 | 318 | 1.7 | 7.0 | 0.00 | 0.02 | 0.00 | ||
| 20260503044809 | 41 | 294 | 0.0 | 1.7 | 0.00 | 0.02 | 0.00 | ||
| 20260503044309 | 41 | 291 | 0.9 | 5.2 | 0.00 | 0.04 | 0.00 | ||
| 20260503043308 | 40 | 313 | 0.0 | 0.0 | 0.00 | 0.07 | 0.00 | ||
| 20260503042308 | 40 | 288 | 0.0 | 0.0 | 0.00 | 0.11 | 0.00 | ||
| 20260503041309 | 41 | 288 | 0.0 | 0.0 | 0.00 | 0.12 | 0.00 | ||
| 20260503040808 | 41 | 288 | 0.0 | 0.0 | 0.00 | 0.12 | 0.00 | ||
| 20260503040308 | 41 | 288 | 0.0 | 0.0 | 0.00 | 0.12 | 0.00 | ||
| 20260503035808 | 41 | 288 | 0.0 | 0.0 | 0.00 | 0.12 | 0.12 | ||
| 20260503035308 | 41 | 288 | 0.0 | 0.0 | 0.00 | 0.12 | 0.12 | ||
| 20260503034808 | 42 | 288 | 0.0 | 2.6 | 0.00 | 0.12 | 0.12 | ||
| 20260503034308 | 42 | 287 | 0.0 | 4.3 | 0.00 | 0.12 | 0.12 | ||
| 20260503033809 | 42 | 287 | 0.0 | 2.6 | 0.00 | 0.12 | 0.12 | ||
| 20260503032808 | 42 | 295 | 0.9 | 4.3 | 0.00 | 0.12 | 0.12 | ||
| 20260503032308 | 42 | 301 | 3.5 | 6.1 | 0.00 | 0.12 | 0.12 | ||
| 20260503031309 | 42 | 303 | 1.7 | 5.2 | 0.00 | 0.12 | 0.12 | ||
| 20260503030809 | 42 | 335 | 0.0 | 4.3 | 0.00 | 0.13 | 0.12 | ||
| 20260503030309 | 42 | 306 | 0.0 | 0.0 | 0.00 | 0.13 | 0.12 | ||
| 20260503025808 | 42 | 306 | 0.0 | 0.0 | 0.00 | 0.13 | 0.12 | ||
| 20260503025308 | 42 | 306 | 0.9 | 5.2 | 0.00 | 0.14 | 0.12 | ||
| 20260503024808 | 42 | 293 | 0.0 | 2.6 | 0.00 | 0.15 | 0.12 | ||
| 20260503024308 | 43 | 292 | 0.0 | 0.0 | 0.00 | 0.15 | 0.12 | ||
| 20260503023809 | 43 | 289 | 2.6 | 7.0 | 0.00 | 0.15 | 0.12 | ||
| 20260503022808 | 42 | 314 | 0.9 | 5.2 | 0.00 | 0.15 | 0.12 | ||
| 20260503021809 | 42 | 313 | 0.0 | 0.0 | 0.00 | 0.15 | 0.12 | ||
| 20260503021308 | 43 | 313 | 1.7 | 5.2 | 0.00 | 0.15 | 0.12 | ||
| 20260503020309 | 42 | 278 | 0.0 | 4.3 | 0.00 | 0.15 | 0.12 | ||
| 20260503015808 | 42 | 291 | 0.0 | 4.3 | 0.00 | 0.15 | 0.12 | ||
| 20260503015308 | 42 | 315 | 0.0 | 1.7 | 0.00 | 0.15 | 0.12 | ||
| 20260503014808 | 42 | 246 | 0.0 | 0.9 | 0.00 | 0.15 | 0.12 | ||
| 20260503014308 | 42 | 249 | 0.9 | 2.6 | 0.00 | 0.15 | 0.12 | ||
| 20260503013808 | 42 | 246 | 0.9 | 4.3 | 0.00 | 0.15 | 0.12 | ||
| 20260503013309 | 42 | 250 | 2.6 | 6.1 | 0.00 | 0.15 | 0.12 | ||
| 20260503012808 | 42 | 270 | 1.7 | 5.2 | 0.00 | 0.15 | 0.12 | ||
| 20260503012308 | 42 | 254 | 0.9 | 6.1 | 0.00 | 0.15 | 0.12 | ||
| 20260503011808 | 42 | 217 | 0.0 | 0.0 | 0.00 | 0.15 | 0.12 | ||
| 20260503010808 | 42 | 217 | 0.0 | 0.0 | 0.00 | 0.15 | 0.12 | ||
| 20260503010309 | 42 | 217 | 0.0 | 0.0 | 0.00 | 0.16 | 0.12 | ||
| 20260503005307 | 42 | 322 | 0.0 | 0.0 | 0.00 | 0.16 | 0.12 | ||
| 20260503004808 | 42 | 322 | 0.0 | 2.6 | 0.00 | 0.16 | 0.12 | ||
| 20260503004309 | 43 | 275 | 0.0 | 0.0 | 0.00 | 0.16 | 0.12 | ||
| 20260503003808 | 43 | 275 | 0.0 | 1.7 | 0.00 | 0.17 | 0.12 | ||
| 20260503003308 | 43 | 307 | 1.7 | 4.3 | 0.00 | 0.17 | 0.12 | ||
| 20260503002808 | 43 | 232 | 0.0 | 0.0 | 0.00 | 0.17 | 0.12 | ||
| 20260503000808 | 43 | 250 | 1.7 | 5.2 | 0.00 | 0.18 | 0.12 |